Location: Unspecified
(0.0000°N, 0.0000°E)
Time: 18:51:33
(UTC+00:00)

STARLINK-1172 - Pass Details

Date: 15 June 2025
Orbit: 546 x 548 km, 53.1° (Epoch: 20 July)

Event Time Altitude Azimuth Distance (km) Brightness Sun altitude
Rises 18:44:20 0° 2° (N) 2,700 7.5 -10.0°
Reaches altitude 10° 18:48:17 10° 40° (NE) 1,812 6.1 -10.9°
Maximum altitude 18:49:20 11° 55° (NE) 1,760 5.9 -11.2°
Drops below altitude 10° 18:50:24 10° 70° (ENE) 1,814 5.8 -11.4°
Enters shadow 18:50:43 10° 74° (ENE) 1,850 5.8 -11.5°
